CW3467 Weather Reports


Display with metric or nautical units.
time (UTC)temp
F
wind
direction
speed
MPH
gust
MPH
rain 1hr
in
rain 24hr
in
rain mn
in
humidity
%
barometer
mb
20260831040503 63 0 0.0 0.0 0.00 0.00 0.00 70 1020.1
20260831040003 64 0 0.0 0.0 0.00 0.00 0.00 70 1020.1
20260831035503 64 0 0.0 0.0 0.00 0.00 0.00 69 1020.1
20260831035024 64 0 0.0 0.0 0.00 0.00 0.00 69 1020.0
20260831034524 64 0 0.0 0.0 0.00 0.00 0.00 69 1020.0
20260831034024 64 0 0.0 0.0 0.00 0.00 0.00 68 1020.1
20260831033503 64 0 0.0 0.0 0.00 0.00 0.00 68 1019.8
20260831033003 64 0 0.0 0.0 0.00 0.00 0.00 67 1019.9
20260831032503 65 0 0.0 0.0 0.00 0.00 0.00 67 1019.9
20260831032003 65 0 0.0 0.0 0.00 0.00 0.00 67 1019.9
20260831031503 65 0 0.0 0.0 0.00 0.00 0.00 67 1019.8
20260831031003 65 0 0.0 0.0 0.00 0.00 0.00 66 1019.9
20260831030503 64 0 0.0 0.0 0.00 0.00 0.00 67 1019.8
20260831030003 65 0 0.0 0.0 0.00 0.00 0.00 67 1019.8
20260831025503 65 0 0.0 0.0 0.00 0.00 0.00 67 1020.0
20260831025003 65 0 0.0 0.0 0.00 0.00 0.00 66 1019.9
20260831024503 66 0 0.0 0.0 0.00 0.00 0.00 65 1019.8
20260831024003 65 0 0.0 0.0 0.00 0.00 0.00 65 1019.8
20260831023503 65 0 0.0 0.0 0.00 0.00 0.00 65 1019.6
20260831023003 65 0 0.0 0.0 0.00 0.00 0.00 65 1019.8
20260831022503 65 0 0.0 0.0 0.00 0.00 0.00 66 1019.8
20260831022003 65 0 0.0 0.0 0.00 0.00 0.00 66 1019.8
20260831021503 65 0 0.0 0.0 0.00 0.00 0.00 66 1019.9
20260831021024 65 0 0.0 0.0 0.00 0.00 0.00 66 1019.9
20260831020503 65 0 0.0 0.0 0.00 0.00 0.00 65 1019.7
20260831020003 66 0 0.0 0.0 0.00 0.00 0.00 65 1019.9
20260831015503 66 0 0.0 0.0 0.00 0.00 0.00 64 1020.0
20260831015003 66 215 0.0 1.0 0.00 0.00 0.00 64 1020.0
20260831014503 67 221 0.0 1.0 0.00 0.00 0.00 63 1019.9
20260831014003 67 219 0.0 1.0 0.00 0.00 0.00 63 1019.9
20260831013503 67 200 0.0 1.0 0.00 0.00 0.00 63 1020.1
20260831013024 66 206 0.0 1.0 0.00 0.00 0.00 63 1020.0
20260831012503 66 215 0.0 1.0 0.00 0.00 0.00 63 1020.1
20260831012003 66 220 0.0 1.0 0.00 0.00 0.00 63 1019.9
20260831011503 66 222 0.0 1.0 0.00 0.00 0.00 64 1020.0
20260831011024 66 221 0.0 2.0 0.00 0.00 0.00 64 1020.0
20260831010503 66 222 1.0 2.0 0.00 0.00 0.00 65 1020.0
20260831010004 66 220 1.0 2.0 0.00 0.00 0.00 64 1020.1
20260831005504 67 217 1.0 2.0 0.00 0.00 0.00 64 1019.9
20260831005004 66 210 0.0 1.0 0.00 0.00 0.00 64 1020.0
20260831004504 67 190 0.0 1.0 0.00 0.00 0.00 63 1019.8
20260831004004 67 212 0.0 1.0 0.00 0.00 0.00 62 1020.0
20260831003504 67 225 0.0 1.0 0.00 0.00 0.00 63 1019.9
20260831003025 67 214 0.0 1.0 0.00 0.00 0.00 63 1020.1
20260831002525 68 215 1.0 2.0 0.00 0.00 0.00 61 1020.0
20260831002004 68 219 1.0 2.0 0.00 0.00 0.00 61 1019.8
20260831001525 68 222 1.0 2.0 0.00 0.00 0.00 61 1020.0
20260831001004 68 221 1.0 2.0 0.00 0.00 0.00 61 1020.0
20260831000504 68 220 1.0 2.0 0.00 0.00 0.00 60 1020.0
20260831000004 68 222 1.0 2.0 0.00 0.00 0.00 60 1019.9
20260830235504 67 223 0.0 1.0 0.00 0.00 0.00 61 1020.0
20260830235004 67 223 0.0 1.0 0.00 0.00 0.00 62 1019.9
20260830234504 67 219 0.0 1.0 0.00 0.00 0.00 62 1019.9
20260830234004 68 203 0.0 1.0 0.00 0.00 0.00 61 1020.2
20260830233504 67 0 0.0 0.0 0.00 0.00 0.00 61 1020.0
20260830233004 68 0 0.0 0.0 0.00 0.00 0.00 62 1020.0
20260830232504 67 0 0.0 0.0 0.00 0.00 0.00 61 1020.0
20260830232004 67 220 0.0 1.0 0.00 0.00 0.00 62 1020.1
20260830231504 68 230 1.0 3.0 0.00 0.00 0.00 61 1020.1
20260830231004 69 227 1.0 3.0 0.00 0.00 0.00 61 1020.1
20260830230525 69 219 1.0 2.0 0.00 0.00 0.00 59 1020.0
20260830230004 69 221 1.0 2.0 0.00 0.00 0.00 59 1019.9
20260830225504 69 223 1.0 2.0 0.00 0.00 0.00 59 1020.0
20260830225004 69 222 1.0 2.0 0.00 0.00 0.00 58 1019.9
20260830224504 69 222 1.0 1.0 0.00 0.00 0.00 58 1020.0
20260830224004 70 223 1.0 1.0 0.00 0.00 0.00 58 1019.7
20260830223504 70 224 1.0 1.0 0.00 0.00 0.00 58 1019.8
20260830223004 69 227 1.0 1.0 0.00 0.00 0.00 58 1019.8
20260830222504 70 223 0.0 1.0 0.00 0.00 0.00 58 1019.5
20260830222004 71 219 0.0 1.0 0.00 0.00 0.00 56 1019.6
20260830221504 71 220 0.0 1.0 0.00 0.00 0.00 56 1019.7
20260830221004 71 220 0.0 1.0 0.00 0.00 0.00 56 1019.7
20260830220525 71 221 0.0 1.0 0.00 0.00 0.00 56 1019.8
20260830220004 71 0 0.0 0.0 0.00 0.00 0.00 56 1019.8
20260830215504 71 221 0.0 1.0 0.00 0.00 0.00 56 1019.6
20260830215004 72 186 0.0 1.0 0.00 0.00 0.00 54 1019.5
20260830214504 72 194 0.0 1.0 0.00 0.00 0.00 54 1019.2
20260830214004 72 219 0.0 1.0 0.00 0.00 0.00 53 1019.4
20260830213504 72 223 0.0 1.0 0.00 0.00 0.00 53 1019.4
20260830213004 72 224 0.0 1.0 0.00 0.00 0.00 53 1019.0
20260830212504 72 220 0.0 1.0 0.00 0.00 0.00 54 1019.4
20260830212004 72 222 1.0 2.0 0.00 0.00 0.00 54 1019.1
20260830211525 72 223 0.0 2.0 0.00 0.00 0.00 53 1019.0
20260830211025 73 223 0.0 2.0 0.00 0.00 0.00 53 1019.1
20260830210504 73 222 0.0 1.0 0.00 0.00 0.00 52 1019.0
20260830210004 74 219 0.0 1.0 0.00 0.00 0.00 52 1018.9
20260830205504 74 219 1.0 2.0 0.00 0.00 0.00 52 1019.0
20260830205004 74 221 1.0 2.0 0.00 0.00 0.00 51 1018.9
20260830204504 74 215 1.0 2.0 0.00 0.00 0.00 50 1018.9
20260830204004 75 208 1.0 2.0 0.00 0.00 0.00 49 1018.9
20260830203504 75 217 1.0 2.0 0.00 0.00 0.00 49 1018.7
20260830203004 75 219 1.0 2.0 0.00 0.00 0.00 49 1018.8
20260830202504 75 219 0.0 2.0 0.00 0.00 0.00 50 1018.7
20260830202025 75 214 0.0 2.0 0.00 0.00 0.00 49 1018.8
20260830201504 76 217 0.0 2.0 0.00 0.00 0.00 48 1018.6
20260830201004 77 216 1.0 2.0 0.00 0.00 0.00 48 1018.6
20260830200504 77 215 0.0 1.0 0.00 0.00 0.00 47 1018.4
20260830200004 77 204 0.0 2.0 0.00 0.00 0.00 47 1018.4
20260830195504 78 193 0.0 2.0 0.00 0.00 0.00 47 1018.3
20260830195004 78 191 0.0 2.0 0.00 0.00 0.00 46 1018.2
20260830194504 79 250 1.0 4.0 0.00 0.00 0.00 45 1018.2
20260830194004 79 249 1.0 4.0 0.00 0.00 0.00 46 1017.9
20260830193504 79 236 1.0 3.0 0.00 0.00 0.00 46 1017.9
20260830193004 79 233 1.0 3.0 0.00 0.00 0.00 46 1017.8
20260830192504 78 231 1.0 3.0 0.00 0.00 0.00 46 1017.9
20260830192004 78 223 1.0 2.0 0.00 0.00 0.00 45 1017.9
20260830191503 78 224 1.0 2.0 0.00 0.00 0.00 45 1017.9
20260830191004 79 221 1.0 2.0 0.00 0.00 0.00 45 1017.5
20260830190504 80 216 1.0 2.0 0.00 0.00 0.00 43 1017.6
20260830190004 80 218 1.0 2.0 0.00 0.00 0.00 43 1017.5
20260830185504 80 220 1.0 2.0 0.00 0.00 0.00 42 1017.3
20260830185004 81 219 1.0 2.0 0.00 0.00 0.00 42 1017.5
20260830184504 81 219 1.0 2.0 0.00 0.00 0.00 41 1017.5
20260830184004 81 219 0.0 1.0 0.00 0.00 0.00 42 1017.4
20260830183504 81 221 0.0 1.0 0.00 0.00 0.00 42 1017.4
20260830183004 82 220 0.0 1.0 0.00 0.00 0.00 43 1017.2
20260830182504 82 0 0.0 0.0 0.00 0.00 0.00 41 1017.2
20260830182004 83 215 0.0 1.0 0.00 0.00 0.00 40 1017.3
20260830181504 85 220 0.0 2.0 0.00 0.00 0.00 39 1017.3
20260830181004 85 222 0.0 2.0 0.00 0.00 0.00 38 1017.3
20260830180503 87 225 0.0 2.0 0.00 0.00 0.00 38 1017.0
20260830180025 87 224 0.0 2.0 0.00 0.00 0.00 36 1017.0
20260830175504 87 216 0.0 2.0 0.00 0.00 0.00 34 1017.1
20260830175025 88 209 0.0 2.0 0.00 0.00 0.00 34 1017.1
20260830174504 88 229 1.0 4.0 0.00 0.00 0.00 33 1017.2
20260830174004 88 228 1.0 4.0 0.00 0.00 0.00 35 1016.9
20260830173524 88 217 1.0 3.0 0.00 0.00 0.00 34 1017.0
20260830173003 89 225 1.0 3.0 0.00 0.00 0.00 34 1017.2
20260830172503 88 227 1.0 2.0 0.00 0.00 0.00 33 1017.2
20260830172004 89 207 0.0 3.0 0.00 0.00 0.00 32 1016.9
20260830171503 89 129 1.0 4.0 0.00 0.00 0.00 35 1017.0
20260830171003 89 212 1.0 4.0 0.00 0.00 0.00 34 1017.2
20260830170503 90 234 1.0 3.0 0.00 0.00 0.00 32 1017.1
20260830170004 89 256 1.0 7.0 0.00 0.00 0.00 32 1016.9
20260830165504 89 258 1.0 7.0 0.00 0.00 0.00 33 1017.1
20260830165004 89 257 2.0 6.0 0.00 0.00 0.00 33 1017.0
20260830164504 89 277 2.0 6.0 0.00 0.00 0.00 33 1017.1
20260830164004 89 268 2.0 6.0 0.00 0.00 0.00 34 1017.0
20260830163504 90 247 2.0 6.0 0.00 0.00 0.00 33 1016.9
20260830163025 89 276 2.0 6.0 0.00 0.00 0.00 33 1017.0
20260830162503 89 308 3.0 8.0 0.00 0.00 0.00 34 1017.1
20260830162004 89 305 3.0 8.0 0.00 0.00 0.00 33 1017.0
20260830161503 89 295 4.0 10.0 0.00 0.00 0.00 32 1017.0
20260830161004 89 295 4.0 10.0 0.00 0.00 0.00 33 1017.1
20260830160525 89 284 3.0 9.0 0.00 0.00 0.00 32 1017.0
20260830160003 89 286 3.0 10.0 0.00 0.00 0.00 33 1016.9
20260830155503 89 283 4.0 10.0 0.00 0.00 0.00 33 1017.2
20260830155024 90 278 3.0 10.0 0.00 0.00 0.00 32 1017.1
20260830154504 91 282 2.0 7.0 0.00 0.00 0.00 31 1017.1
20260830154024 90 284 2.0 8.0 0.00 0.00 0.00 32 1017.3
20260830153504 90 77 2.0 8.0 0.00 0.00 0.00 32 1017.3
20260830153024 90 84 2.0 7.0 0.00 0.00 0.00 33 1017.5
20260830152504 90 134 1.0 6.0 0.00 0.00 0.00 31 1017.3
20260830152004 91 178 2.0 6.0 0.00 0.00 0.00 31 1017.2
20260830151504 91 239 2.0 7.0 0.00 0.00 0.00 30 1017.3
20260830151004 91 230 1.0 7.0 0.00 0.00 0.00 30 1017.3
20260830150524 90 236 2.0 6.0 0.00 0.00 0.00 31 1017.4
20260830150003 90 254 2.0 7.0 0.00 0.00 0.00 31 1017.4
20260830145504 90 64 2.0 7.0 0.00 0.00 0.00 31 1017.3
20260830145003 90 63 2.0 7.0 0.00 0.00 0.00 31 1017.5
20260830144503 90 59 2.0 7.0 0.00 0.00 0.00 32 1017.6
20260830144003 90 104 1.0 7.0 0.00 0.00 0.00 32 1017.6
20260830143503 89 58 1.0 7.0 0.00 0.00 0.00 33 1017.8
20260830143003 90 10 1.0 3.0 0.00 0.00 0.00 31 1017.8
20260830142524 90 2 1.0 4.0 0.00 0.00 0.00 32 1017.9
20260830142004 91 267 1.0 4.0 0.00 0.00 0.00 32 1017.8
20260830141503 91 285 2.0 9.0 0.00 0.00 0.00 33 1018.0
20260830141003 89 65 1.0 9.0 0.00 0.00 0.00 32 1018.0
20260830140503 89 288 1.0 9.0 0.00 0.00 0.00 32 1018.1
20260830140004 90 236 1.0 4.0 0.00 0.00 0.00 32 1018.0
20260830135503 91 276 2.0 8.0 0.00 0.00 0.00 32 1018.1
20260830135004 89 316 2.0 8.0 0.00 0.00 0.00 34 1018.2
20260830134504 89 38 2.0 7.0 0.00 0.00 0.00 33 1018.3
20260830134004 87 52 2.0 8.0 0.00 0.00 0.00 33 1018.4
20260830133525 87 45 2.0 8.0 0.00 0.00 0.00 33 1018.4
20260830133025 88 260 2.0 6.0 0.00 0.00 0.00 32 1018.4
20260830132504 89 287 2.0 7.0 0.00 0.00 0.00 34 1018.3
20260830132003 88 305 2.0 7.0 0.00 0.00 0.00 33 1018.4
20260830131503 89 75 1.0 4.0 0.00 0.00 0.00 34 1018.7
20260830131004 88 64 2.0 7.0 0.00 0.00 0.00 33 1018.7
20260830130503 86 49 2.0 7.0 0.00 0.00 0.00 34 1018.5
20260830130004 87 42 1.0 7.0 0.00 0.00 0.00 34 1018.6
20260830125504 87 57 2.0 7.0 0.00 0.00 0.00 34 1018.8
20260830125004 86 56 2.0 9.0 0.00 0.00 0.00 34 1019.0
20260830124503 87 21 2.0 9.0 0.00 0.00 0.00 35 1019.0
20260830124003 87 12 2.0 6.0 0.00 0.00 0.00 35 1019.1
20260830123503 87 53 1.0 6.0 0.00 0.00 0.00 36 1019.2
20260830123003 87 62 2.0 7.0 0.00 0.00 0.00 35 1019.0
20260830122524 86 50 1.0 7.0 0.00 0.00 0.00 36 1019.4
20260830122003 86 299 1.0 3.0 0.00 0.00 0.00 35 1019.0
20260830121504 88 50 1.0 4.0 0.00 0.00 0.00 35 1019.1
20260830121003 86 42 2.0 7.0 0.00 0.00 0.00 37 1019.2
20260830120503 85 32 2.0 7.0 0.00 0.00 0.00 36 1019.4
20260830120003 86 303 1.0 6.0 0.00 0.00 0.00 37 1019.4
20260830115503 85 355 1.0 6.0 0.00 0.00 0.00 35 1019.4
20260830115003 84 51 2.0 7.0 0.00 0.00 0.00 37 1019.5
20260830114503 83 52 2.0 7.0 0.00 0.00 0.00 38 1019.7
20260830114004 85 273 1.0 4.0 0.00 0.00 0.00 38 1019.6
20260830113524 85 255 1.0 4.0 0.00 0.00 0.00 37 1020.0
20260830113003 85 202 1.0 3.0 0.00 0.00 0.00 38 1019.6
20260830112504 83 92 2.0 4.0 0.00 0.00 0.00 38 1019.8
20260830112003 83 91 1.0 4.0 0.00 0.00 0.00 39 1019.8
20260830111503 83 165 1.0 4.0 0.00 0.00 0.00 39 1019.9
20260830111024 83 201 1.0 3.0 0.00 0.00 0.00 36 1020.2
20260830110524 84 255 1.0 3.0 0.00 0.00 0.00 35 1020.1
20260830110004 83 236 1.0 3.0 0.00 0.00 0.00 38 1020.0
20260830105503 82 224 1.0 4.0 0.00 0.00 0.00 38 1020.0
20260830105003 83 244 1.0 4.0 0.00 0.00 0.00 41 1020.1
20260830104503 83 248 1.0 2.0 0.00 0.00 0.00 42 1020.2
20260830104003 83 240 1.0 2.0 0.00 0.00 0.00 44 1020.2
20260830103503 82 247 1.0 3.0 0.00 0.00 0.00 45 1020.3
20260830103024 80 238 1.0 3.0 0.00 0.00 0.00 46 1020.3
20260830102503 80 246 1.0 2.0 0.00 0.00 0.00 44 1020.3
20260830102003 80 256 1.0 3.0 0.00 0.00 0.00 45 1020.4
20260830101525 80 232 1.0 3.0 0.00 0.00 0.00 46 1020.4
20260830101003 78 166 1.0 3.0 0.00 0.00 0.00 47 1020.3
20260830100524 78 164 1.0 3.0 0.00 0.00 0.00 46 1020.5
20260830100003 77 97 1.0 3.0 0.00 0.00 0.00 48 1020.4
20260830095503 76 86 1.0 4.0 0.00 0.00 0.00 49 1020.5
20260830095003 78 262 1.0 4.0 0.00 0.00 0.00 47 1020.5
20260830094503 77 245 1.0 3.0 0.00 0.00 0.00 47 1020.5
20260830094003 77 243 1.0 3.0 0.00 0.00 0.00 48 1020.7
20260830093503 77 239 1.0 3.0 0.00 0.00 0.00 48 1020.7
20260830093003 76 243 1.0 3.0 0.00 0.00 0.00 51 1020.7
20260830092503 75 248 1.0 3.0 0.00 0.00 0.00 49 1020.7
20260830092003 75 253 1.0 4.0 0.00 0.00 0.00 52 1020.7
20260830091524 74 259 1.0 4.0 0.00 0.00 0.00 53 1020.9
20260830091003 74 256 1.0 3.0 0.00 0.00 0.00 55 1020.9
20260830090524 73 255 1.0 3.0 0.00 0.00 0.00 54 1021.1
20260830090004 73 257 1.0 3.0 0.00 0.00 0.00 55 1020.8
20260830085524 72 251 1.0 3.0 0.00 0.00 0.00 55 1020.9
20260830085003 73 248 1.0 2.0 0.00 0.00 0.00 56 1020.6
20260830084524 72 247 1.0 2.0 0.00 0.00 0.00 56 1020.9
20260830084003 72 239 1.0 2.0 0.00 0.00 0.00 56 1020.8
20260830083524 72 241 1.0 2.0 0.00 0.00 0.00 55 1020.9
20260830083003 71 248 1.0 2.0 0.00 0.00 0.00 57 1020.9
20260830082503 70 245 1.0 3.0 0.00 0.00 0.00 57 1020.9
20260830082003 70 244 1.0 3.0 0.00 0.00 0.00 58 1021.2
20260830081503 69 249 1.0 3.0 0.00 0.00 0.00 60 1021.1
20260830081003 69 249 1.0 2.0 0.00 0.00 0.00 62 1021.2
20260830080503 68 246 1.0 2.0 0.00 0.00 0.00 62 1021.2
20260830080003 68 243 1.0 2.0 0.00 0.00 0.00 62 1021.2
20260830075503 67 243 1.0 2.0 0.00 0.00 0.00 64 1021.1
20260830075003 67 243 1.0 2.0 0.00 0.00 0.00 64 1021.2
20260830074524 66 245 1.0 2.0 0.00 0.00 0.00 64 1021.3
20260830074003 65 246 1.0 3.0 0.00 0.00 0.00 67 1021.1
20260830073503 65 245 1.0 3.0 0.00 0.00 0.00 67 1021.2
20260830073003 65 244 1.0 2.0 0.00 0.00 0.00 68 1020.9
20260830072524 64 246 1.0 2.0 0.00 0.00 0.00 68 1020.9
20260830072024 64 246 1.0 2.0 0.00 0.00 0.00 68 1021.1
20260830071503 63 243 1.0 2.0 0.00 0.00 0.00 69 1020.9
20260830071003 62 237 1.0 2.0 0.00 0.00 0.00 70 1021.1
20260830070503 62 234 0.0 2.0 0.00 0.00 0.00 71 1021.1
20260830070024 62 240 0.0 1.0 0.00 0.00 0.00 71 1021.1
20260830065503 61 228 0.0 1.0 0.00 0.00 0.00 73 1021.1
20260830065003 61 226 0.0 1.0 0.00 0.00 0.00 72 1021.2
20260830064503 60 224 0.0 2.0 0.00 0.00 0.00 73 1021.2
20260830064003 60 223 0.0 2.0 0.00 0.00 0.00 73 1020.8
20260830063503 60 213 0.0 2.0 0.00 0.00 0.00 74 1020.8
20260830063003 60 220 1.0 2.0 0.00 0.00 0.00 74 1020.9
20260830062503 60 224 1.0 1.0 0.00 0.00 0.00 73 1020.8
20260830062003 60 224 0.0 1.0 0.00 0.00 0.00 72 1020.8
20260830061503 60 223 0.0 1.0 0.00 0.00 0.00 72 1020.7
20260830061003 60 218 0.0 1.0 0.00 0.00 0.00 72 1020.8
20260830060503 60 212 0.0 1.0 0.00 0.00 0.00 72 1020.8
20260830060003 60 212 0.0 1.0 0.00 0.00 0.00 72 1020.6
20260830055503 60 220 0.0 1.0 0.00 0.00 0.00 72 1020.6
20260830055003 60 221 0.0 1.0 0.00 0.00 0.00 72 1020.7
20260830054503 60 223 0.0 1.0 0.00 0.00 0.00 72 1020.3
20260830054003 59 224 0.0 1.0 0.00 0.00 0.00 73 1020.5
20260830053524 59 230 0.0 2.0 0.00 0.00 0.00 74 1020.6
20260830053003 59 226 0.0 2.0 0.00 0.00 0.00 74 1020.7
20260830052503 59 224 0.0 1.0 0.00 0.00 0.00 73 1020.4
20260830052003 59 225 0.0 1.0 0.00 0.00 0.00 73 1020.6
20260830051524 59 232 0.0 1.0 0.00 0.00 0.00 73 1020.4
20260830051024 60 215 0.0 1.0 0.00 0.00 0.00 71 1020.4
20260830050503 60 215 0.0 1.0 0.00 0.00 0.00 72 1020.3
20260830050003 60 0 0.0 0.0 0.00 0.00 0.00 72 1020.5
20260830045503 60 0 0.0 0.0 0.00 0.00 0.00 72 1020.2
20260830045003 60 226 0.0 1.0 0.00 0.00 0.00 72 1020.2
20260830044503 60 227 0.0 1.0 0.00 0.00 0.00 72 1020.3
20260830044024 60 227 0.0 1.0 0.00 0.00 0.00 72 1020.5
20260830043503 60 223 0.0 1.0 0.00 0.00 0.00 71 1020.4
20260830043003 60 223 0.0 1.0 0.00 0.00 0.00 70 1020.3
20260830042503 60 223 0.0 1.0 0.00 0.00 0.00 70 1020.3
20260830042003 60 224 0.0 1.0 0.00 0.00 0.00 70 1020.4
20260830041546 60 222 0.0 1.0 0.00 0.00 0.00 70 1020.4